Time,TemperatureF,DewpointF,PressureIn,WindDirection,WindDirectionDegrees,WindSpeedMPH,WindSpeedGustMPH,Humidity,HourlyPrecipIn,Conditions,Clouds,dailyrainin,SoftwareType,DateUTC
2013-10-06 00:00:00,63.8,62.0,29.94,WSW,246,0.0,0.0,94,0.00,,,0.00,Wunderground v.1.15,2013-10-06 04:00:00,
2013-10-06 00:05:00,63.8,62.0,29.94,WSW,246,0.0,0.0,94,0.00,,,0.00,Wunderground v.1.15,2013-10-06 04:05:00,
2013-10-06 00:10:00,63.8,62.0,29.94,WSW,245,0.0,0.0,94,0.00,,,0.00,Wunderground v.1.15,2013-10-06 04:10:00,
2013-10-06 00:15:00,63.7,61.9,29.94,WSW,246,0.0,0.0,94,0.00,,,0.00,Wunderground v.1.15,2013-10-06 04:15:00,
2013-10-06 00:20:00,63.6,61.8,29.94,WSW,246,0.0,0.0,94,0.00,,,0.00,Wunderground v.1.15,2013-10-06 04:20:00,
2013-10-06 00:30:00,63.4,61.6,29.94,WSW,246,0.0,0.0,94,0.00,,,0.00,Wunderground v.1.15,2013-10-06 04:30:00,
2013-10-06 00:35:00,63.2,61.4,29.94,WSW,246,0.0,0.0,94,0.00,,,0.00,Wunderground v.1.15,2013-10-06 04:35:00,
2013-10-06 00:40:00,63.1,61.3,29.94,WSW,246,0.0,0.0,94,0.00,,,0.00,Wunderground v.1.15,2013-10-06 04:40:00,
2013-10-06 00:45:00,63.0,61.2,29.94,WSW,246,0.0,0.0,94,0.00,,,0.00,Wunderground v.1.15,2013-10-06 04:45:00,
2013-10-06 00:50:00,62.9,61.1,29.93,WSW,245,0.0,0.0,94,0.00,,,0.00,Wunderground v.1.15,2013-10-06 04:50:00,
2013-10-06 00:55:00,62.9,61.1,29.93,WSW,246,0.0,0.0,94,0.00,,,0.00,Wunderground v.1.15,2013-10-06 04:55:00,
2013-10-06 01:00:00,62.8,61.0,29.93,WSW,246,0.0,0.0,94,0.00,,,0.00,Wunderground v.1.15,2013-10-06 05:00:00,
2013-10-06 01:05:00,62.7,60.9,29.93,WSW,246,0.0,0.0,94,0.00,,,0.00,Wunderground v.1.15,2013-10-06 05:05:00,
2013-10-06 01:10:00,62.7,60.9,29.93,WSW,245,0.0,0.0,94,0.00,,,0.00,Wunderground v.1.15,2013-10-06 05:10:00,
2013-10-06 01:15:00,62.6,60.8,29.93,WSW,246,0.0,0.0,94,0.00,,,0.00,Wunderground v.1.15,2013-10-06 05:15:00,
2013-10-06 01:20:00,62.6,60.8,29.93,WSW,245,0.0,0.0,94,0.00,,,0.00,Wunderground v.1.15,2013-10-06 05:20:00,
2013-10-06 01:30:00,62.5,60.7,29.93,WSW,246,0.0,0.0,94,0.00,,,0.00,Wunderground v.1.15,2013-10-06 05:30:00,
2013-10-06 01:35:00,62.4,60.7,29.93,WSW,246,0.0,0.0,94,0.00,,,0.00,Wunderground v.1.15,2013-10-06 05:35:00,
2013-10-06 01:40:00,62.3,60.6,29.93,WSW,246,0.0,0.0,94,0.00,,,0.00,Wunderground v.1.15,2013-10-06 05:40:00,
2013-10-06 01:45:00,62.2,60.8,29.93,WSW,246,0.0,0.0,95,0.00,,,0.00,Wunderground v.1.15,2013-10-06 05:45:00,
2013-10-06 01:50:00,62.1,60.4,29.93,WSW,245,0.0,0.0,94,0.00,,,0.00,Wunderground v.1.15,2013-10-06 05:50:00,
2013-10-06 01:55:00,61.9,60.2,29.93,WSW,246,0.0,0.0,94,0.00,,,0.00,Wunderground v.1.15,2013-10-06 05:55:00,
2013-10-06 02:05:00,61.8,60.4,29.93,WSW,246,0.0,0.0,95,0.00,,,0.00,Wunderground v.1.15,2013-10-06 06:05:00,
2013-10-06 02:10:00,61.7,60.3,29.93,WSW,246,0.0,0.0,95,0.00,,,0.00,Wunderground v.1.15,2013-10-06 06:10:00,
2013-10-06 02:15:00,61.7,60.3,29.93,WSW,246,0.0,0.0,95,0.00,,,0.00,Wunderground v.1.15,2013-10-06 06:15:00,
2013-10-06 02:20:00,61.6,60.2,29.93,WSW,246,0.0,0.0,95,0.00,,,0.00,Wunderground v.1.15,2013-10-06 06:20:00,
2013-10-06 02:25:00,61.5,60.1,29.92,WSW,246,0.0,0.0,95,0.00,,,0.00,Wunderground v.1.15,2013-10-06 06:25:00,
2013-10-06 02:30:00,61.4,60.0,29.92,WSW,246,0.0,0.0,95,0.00,,,0.00,Wunderground v.1.15,2013-10-06 06:30:00,
2013-10-06 02:35:00,61.3,59.9,29.92,WSW,246,0.0,0.0,95,0.00,,,0.00,Wunderground v.1.15,2013-10-06 06:35:00,
2013-10-06 02:40:00,61.3,59.9,29.92,WSW,246,0.0,0.0,95,0.00,,,0.00,Wunderground v.1.15,2013-10-06 06:40:00,
2013-10-06 02:45:00,61.3,59.9,29.92,WSW,246,0.0,0.0,95,0.00,,,0.00,Wunderground v.1.15,2013-10-06 06:45:00,
2013-10-06 02:50:00,61.2,59.8,29.91,WSW,246,0.0,0.0,95,0.00,,,0.00,Wunderground v.1.15,2013-10-06 06:50:00,
2013-10-06 02:55:00,61.3,59.9,29.92,WSW,246,0.0,0.0,95,0.00,,,0.00,Wunderground v.1.15,2013-10-06 06:55:00,
2013-10-06 03:05:00,61.2,59.8,29.91,WSW,246,0.0,0.0,95,0.00,,,0.00,Wunderground v.1.15,2013-10-06 07:05:00,
2013-10-06 03:10:00,61.3,59.9,29.91,WSW,246,0.0,0.0,95,0.00,,,0.00,Wunderground v.1.15,2013-10-06 07:10:00,
2013-10-06 03:15:00,61.2,59.8,29.91,WSW,245,0.0,0.0,95,0.00,,,0.00,Wunderground v.1.15,2013-10-06 07:15:00,
2013-10-06 03:20:00,61.0,59.6,29.91,WSW,246,0.0,0.0,95,0.00,,,0.00,Wunderground v.1.15,2013-10-06 07:20:00,
2013-10-06 03:25:00,60.9,59.5,29.91,WSW,245,0.0,0.0,95,0.00,,,0.00,Wunderground v.1.15,2013-10-06 07:25:00,
2013-10-06 03:30:00,60.8,59.4,29.90,WSW,245,0.0,0.0,95,0.00,,,0.00,Wunderground v.1.15,2013-10-06 07:30:00,
2013-10-06 03:40:00,60.5,59.1,29.90,WSW,246,0.0,0.0,95,0.00,,,0.00,Wunderground v.1.15,2013-10-06 07:40:00,
2013-10-06 03:45:00,60.4,59.0,29.91,WSW,246,0.0,0.0,95,0.00,,,0.00,Wunderground v.1.15,2013-10-06 07:45:00,
2013-10-06 03:50:00,60.3,58.9,29.91,WSW,246,0.0,0.0,95,0.00,,,0.00,Wunderground v.1.15,2013-10-06 07:50:00,
2013-10-06 03:55:00,60.3,58.9,29.90,WSW,246,0.0,0.0,95,0.00,,,0.00,Wunderground v.1.15,2013-10-06 07:55:00,
2013-10-06 04:00:00,60.5,59.1,29.90,WSW,246,0.0,0.0,95,0.00,,,0.00,Wunderground v.1.15,2013-10-06 08:00:00,
2013-10-06 04:10:00,60.6,59.2,29.90,WSW,245,0.0,0.0,95,0.00,,,0.00,Wunderground v.1.15,2013-10-06 08:10:00,
2013-10-06 04:15:00,60.5,59.1,29.90,WSW,245,0.0,0.0,95,0.00,,,0.00,Wunderground v.1.15,2013-10-06 08:15:00,
2013-10-06 04:20:00,60.5,59.1,29.90,WSW,246,0.0,0.0,95,0.00,,,0.00,Wunderground v.1.15,2013-10-06 08:20:00,
2013-10-06 04:25:00,60.3,58.9,29.90,WSW,246,0.0,0.0,95,0.00,,,0.00,Wunderground v.1.15,2013-10-06 08:25:00,
2013-10-06 04:30:00,60.2,58.8,29.90,WSW,246,0.0,0.0,95,0.00,,,0.00,Wunderground v.1.15,2013-10-06 08:30:00,
2013-10-06 04:40:00,60.0,58.6,29.90,WSW,246,0.0,0.0,95,0.00,,,0.00,Wunderground v.1.15,2013-10-06 08:40:00,
2013-10-06 04:45:00,60.0,58.6,29.90,WSW,246,0.0,0.0,95,0.00,,,0.00,Wunderground v.1.15,2013-10-06 08:45:00,
2013-10-06 04:50:00,59.9,58.5,29.90,WSW,246,0.0,0.0,95,0.00,,,0.00,Wunderground v.1.15,2013-10-06 08:50:00,
2013-10-06 04:55:00,59.8,58.4,29.90,WSW,246,0.0,0.0,95,0.00,,,0.00,Wunderground v.1.15,2013-10-06 08:55:00,
2013-10-06 05:00:00,59.8,58.4,29.90,WSW,246,0.0,0.0,95,0.00,,,0.00,Wunderground v.1.15,2013-10-06 09:00:00,
2013-10-06 05:05:00,59.8,58.4,29.90,WSW,245,0.0,0.0,95,0.00,,,0.00,Wunderground v.1.15,2013-10-06 09:05:00,
2013-10-06 05:15:00,59.6,58.2,29.90,WSW,246,0.0,0.0,95,0.00,,,0.00,Wunderground v.1.15,2013-10-06 09:15:00,
2013-10-06 05:20:00,59.5,58.1,29.90,WSW,246,0.0,0.0,95,0.00,,,0.00,Wunderground v.1.15,2013-10-06 09:20:00,
2013-10-06 05:25:00,59.4,58.0,29.90,WSW,245,0.0,0.0,95,0.00,,,0.00,Wunderground v.1.15,2013-10-06 09:25:00,
2013-10-06 05:30:00,59.4,58.0,29.90,WSW,245,0.0,0.0,95,0.00,,,0.00,Wunderground v.1.15,2013-10-06 09:30:00,
2013-10-06 05:35:00,59.1,57.7,29.90,WSW,246,0.0,0.0,95,0.00,,,0.00,Wunderground v.1.15,2013-10-06 09:35:00,
2013-10-06 05:45:00,58.9,57.5,29.90,WSW,245,0.0,0.0,95,0.00,,,0.00,Wunderground v.1.15,2013-10-06 09:45:00,
2013-10-06 05:50:00,58.8,57.4,29.91,WSW,246,0.0,0.0,95,0.00,,,0.00,Wunderground v.1.15,2013-10-06 09:50:00,
2013-10-06 05:55:00,58.7,57.3,29.91,WSW,245,0.0,0.0,95,0.00,,,0.00,Wunderground v.1.15,2013-10-06 09:55:00,
2013-10-06 06:00:00,58.7,57.3,29.91,WSW,246,0.0,0.0,95,0.00,,,0.00,Wunderground v.1.15,2013-10-06 10:00:00,
2013-10-06 06:05:00,58.7,57.3,29.91,WSW,246,0.0,0.0,95,0.00,,,0.00,Wunderground v.1.15,2013-10-06 10:05:00,
2013-10-06 06:15:00,58.5,57.1,29.91,WSW,245,0.0,0.0,95,0.00,,,0.00,Wunderground v.1.15,2013-10-06 10:15:00,
2013-10-06 06:20:00,58.4,57.0,29.91,WSW,246,0.0,0.0,95,0.00,,,0.00,Wunderground v.1.15,2013-10-06 10:20:00,
2013-10-06 06:25:00,58.4,57.0,29.91,WSW,246,0.0,0.0,95,0.00,,,0.00,Wunderground v.1.15,2013-10-06 10:25:00,
2013-10-06 06:30:00,58.3,56.9,29.91,WSW,246,0.0,0.0,95,0.00,,,0.00,Wunderground v.1.15,2013-10-06 10:30:00,
2013-10-06 06:35:00,58.3,56.9,29.91,WSW,246,0.0,0.0,95,0.00,,,0.00,Wunderground v.1.15,2013-10-06 10:35:00,
2013-10-06 06:40:00,58.2,56.8,29.91,WSW,245,0.0,0.0,95,0.00,,,0.00,Wunderground v.1.15,2013-10-06 10:40:00,
2013-10-06 06:45:00,58.2,56.8,29.91,WSW,246,0.0,0.0,95,0.00,,,0.00,Wunderground v.1.15,2013-10-06 10:45:00,
2013-10-06 06:50:00,58.2,56.8,29.91,WSW,246,0.0,0.0,95,0.00,,,0.00,Wunderground v.1.15,2013-10-06 10:50:00,
2013-10-06 06:55:00,58.3,57.2,29.91,WSW,245,0.0,0.0,96,0.00,,,0.00,Wunderground v.1.15,2013-10-06 10:55:00,
2013-10-06 07:00:00,58.3,56.9,29.91,WSW,246,0.0,0.0,95,0.00,,,0.00,Wunderground v.1.15,2013-10-06 11:00:00,
2013-10-06 07:05:00,58.2,56.8,29.91,WSW,245,0.0,0.0,95,0.00,,,0.00,Wunderground v.1.15,2013-10-06 11:05:00,
2013-10-06 07:10:00,58.0,56.6,29.91,WSW,246,0.0,0.0,95,0.00,,,0.00,Wunderground v.1.15,2013-10-06 11:10:00,
2013-10-06 07:20:00,57.8,56.4,29.92,WSW,246,0.0,0.0,95,0.00,,,0.00,Wunderground v.1.15,2013-10-06 11:20:00,
2013-10-06 07:25:00,57.8,56.4,29.92,WSW,246,0.0,0.0,95,0.00,,,0.00,Wunderground v.1.15,2013-10-06 11:25:00,
2013-10-06 07:30:00,57.9,56.8,29.92,WSW,246,0.0,0.0,96,0.00,,,0.00,Wunderground v.1.15,2013-10-06 11:30:00,
2013-10-06 07:35:00,57.8,56.4,29.92,WSW,246,0.0,0.0,95,0.00,,,0.00,Wunderground v.1.15,2013-10-06 11:35:00,
2013-10-06 07:40:00,57.7,56.3,29.92,WSW,246,0.0,0.0,95,0.00,,,0.00,Wunderground v.1.15,2013-10-06 11:40:00,
2013-10-06 07:50:00,57.6,56.2,29.92,WSW,246,0.0,0.0,95,0.00,,,0.00,Wunderground v.1.15,2013-10-06 11:50:00,
2013-10-06 07:55:00,57.8,56.7,29.92,WSW,246,0.0,0.0,96,0.00,,,0.00,Wunderground v.1.15,2013-10-06 11:55:00,
2013-10-06 08:00:00,57.9,56.8,29.92,WSW,245,0.0,0.0,96,0.00,,,0.00,Wunderground v.1.15,2013-10-06 12:00:00,
2013-10-06 08:10:00,58.0,56.9,29.92,WSW,246,0.0,0.0,96,0.00,,,0.00,Wunderground v.1.15,2013-10-06 12:10:00,
2013-10-06 08:15:00,58.0,56.9,29.92,WSW,245,0.0,0.0,96,0.00,,,0.00,Wunderground v.1.15,2013-10-06 12:15:00,
2013-10-06 08:25:00,58.2,57.1,29.92,WSW,245,0.0,0.0,96,0.00,,,0.00,Wunderground v.1.15,2013-10-06 12:25:00,
2013-10-06 08:30:00,58.2,57.1,29.92,WSW,246,0.0,0.0,96,0.00,,,0.00,Wunderground v.1.15,2013-10-06 12:30:00,
2013-10-06 08:35:00,58.4,57.3,29.92,WSW,245,0.0,0.0,96,0.00,,,0.00,Wunderground v.1.15,2013-10-06 12:35:00,
2013-10-06 08:40:00,58.7,57.6,29.92,WSW,246,0.0,0.0,96,0.00,,,0.00,Wunderground v.1.15,2013-10-06 12:40:00,
2013-10-06 08:45:00,59.2,58.1,29.93,WSW,246,0.0,0.0,96,0.00,,,0.00,Wunderground v.1.15,2013-10-06 12:45:00,
2013-10-06 08:50:00,59.6,58.7,29.93,WSW,246,0.0,0.0,97,0.00,,,0.00,Wunderground v.1.15,2013-10-06 12:50:00,
2013-10-06 08:55:00,59.8,58.9,29.93,WSW,246,0.0,0.0,97,0.00,,,0.00,Wunderground v.1.15,2013-10-06 12:55:00,
2013-10-06 09:01:00,60.2,59.3,29.93,WSW,246,0.0,0.0,97,0.00,,,0.00,Wunderground v.1.15,2013-10-06 13:01:00,
2013-10-06 09:10:00,61.0,60.1,29.93,WSW,246,0.0,0.0,97,0.00,,,0.00,Wunderground v.1.15,2013-10-06 13:10:00,
2013-10-06 09:15:00,61.1,60.2,29.93,WSW,246,0.0,0.0,97,0.00,,,0.00,Wunderground v.1.15,2013-10-06 13:15:00,
2013-10-06 09:20:00,61.4,60.5,29.93,WSW,246,0.0,0.0,97,0.00,,,0.00,Wunderground v.1.15,2013-10-06 13:20:00,
2013-10-06 09:30:00,62.5,61.6,29.93,WSW,246,0.0,0.0,97,0.00,,,0.00,Wunderground v.1.15,2013-10-06 13:30:00,
2013-10-06 09:35:00,63.1,62.2,29.93,WSW,246,0.0,0.0,97,0.00,,,0.00,Wunderground v.1.15,2013-10-06 13:35:00,
2013-10-06 09:40:00,64.0,63.1,29.93,WSW,246,0.0,0.0,97,0.00,,,0.00,Wunderground v.1.15,2013-10-06 13:40:00,
2013-10-06 09:45:00,64.6,63.7,29.93,WSW,246,0.0,0.0,97,0.00,,,0.00,Wunderground v.1.15,2013-10-06 13:45:00,
2013-10-06 09:50:00,65.5,64.6,29.93,WSW,246,0.0,0.0,97,0.00,,,0.00,Wunderground v.1.15,2013-10-06 13:50:00,
2013-10-06 10:01:00,66.9,65.4,29.93,WSW,246,0.0,0.0,95,0.00,,,0.00,Wunderground v.1.15,2013-10-06 14:01:00,
2013-10-06 10:10:00,67.9,65.5,29.93,WSW,246,0.0,0.0,92,0.00,,,0.00,Wunderground v.1.15,2013-10-06 14:10:00,
2013-10-06 10:15:00,68.4,65.4,29.93,WSW,246,0.0,0.0,90,0.00,,,0.00,Wunderground v.1.15,2013-10-06 14:15:00,
2013-10-06 10:20:00,68.8,65.4,29.93,WSW,246,0.0,0.0,89,0.00,,,0.00,Wunderground v.1.15,2013-10-06 14:20:00,
2013-10-06 10:25:00,69.6,65.9,29.93,WSW,246,0.0,0.0,88,0.00,,,0.00,Wunderground v.1.15,2013-10-06 14:25:00,
2013-10-06 10:30:00,70.1,65.7,29.93,WSW,246,0.0,0.0,86,0.00,,,0.00,Wunderground v.1.15,2013-10-06 14:30:00,
2013-10-06 10:35:00,70.7,66.3,29.92,WSW,245,0.0,0.0,86,0.00,,,0.00,Wunderground v.1.15,2013-10-06 14:35:00,
2013-10-06 10:40:00,71.1,66.0,29.92,WSW,239,0.0,0.0,84,0.00,,,0.00,Wunderground v.1.15,2013-10-06 14:40:00,
2013-10-06 10:45:00,71.5,66.8,29.92,WSW,240,0.0,0.0,85,0.00,,,0.00,Wunderground v.1.15,2013-10-06 14:45:00,
2013-10-06 10:50:00,71.9,66.1,29.92,WSW,238,0.0,0.0,82,0.00,,,0.00,Wunderground v.1.15,2013-10-06 14:50:00,
2013-10-06 10:55:00,72.2,65.7,29.92,WSW,238,0.0,0.0,80,0.00,,,0.00,Wunderground v.1.15,2013-10-06 14:55:00,
2013-10-06 11:01:00,72.7,66.2,29.92,WSW,238,0.0,0.0,80,0.00,,,0.00,Wunderground v.1.15,2013-10-06 15:01:00,
2013-10-06 11:10:00,73.6,66.7,29.92,SW,234,0.0,0.0,79,0.00,,,0.00,Wunderground v.1.15,2013-10-06 15:10:00,
2013-10-06 11:15:00,73.9,66.6,29.92,SW,225,0.0,0.0,78,0.00,,,0.00,Wunderground v.1.15,2013-10-06 15:15:00,
2013-10-06 11:20:00,74.2,66.5,29.92,SW,223,0.0,0.0,77,0.00,,,0.00,Wunderground v.1.15,2013-10-06 15:20:00,
2013-10-06 11:25:00,74.5,66.8,29.91,SW,223,0.0,0.0,77,0.00,,,0.00,Wunderground v.1.15,2013-10-06 15:25:00,
2013-10-06 11:35:00,75.4,66.9,29.91,SW,223,0.0,0.0,75,0.00,,,0.00,Wunderground v.1.15,2013-10-06 15:35:00,
2013-10-06 11:40:00,75.8,66.5,29.91,SW,232,0.0,0.0,73,0.00,,,0.00,Wunderground v.1.15,2013-10-06 15:40:00,
2013-10-06 11:45:00,76.2,66.9,29.91,SW,236,0.0,0.0,73,0.00,,,0.00,Wunderground v.1.15,2013-10-06 15:45:00,
2013-10-06 11:50:00,76.6,66.9,29.91,SW,216,0.0,0.0,72,0.00,,,0.00,Wunderground v.1.15,2013-10-06 15:50:00,
2013-10-06 11:55:00,76.8,67.1,29.91,SSW,213,0.0,0.0,72,0.00,,,0.00,Wunderground v.1.15,2013-10-06 15:55:00,
2013-10-06 12:01:00,77.0,66.0,29.90,SW,236,0.0,0.0,69,0.00,,,0.00,Wunderground v.1.15,2013-10-06 16:01:00,
2013-10-06 12:10:00,77.4,66.4,29.90,WSW,237,0.0,0.0,69,0.00,,,0.00,Wunderground v.1.15,2013-10-06 16:10:00,
2013-10-06 12:15:00,77.6,66.6,29.90,SSW,211,0.0,0.0,69,0.00,,,0.00,Wunderground v.1.15,2013-10-06 16:15:00,
2013-10-06 12:20:00,78.1,67.5,29.90,WSW,244,0.0,0.0,70,0.00,,,0.00,Wunderground v.1.15,2013-10-06 16:20:00,
2013-10-06 12:25:00,78.4,67.4,29.89,SSW,198,0.0,0.0,69,0.00,,,0.00,Wunderground v.1.15,2013-10-06 16:25:00,
2013-10-06 12:30:00,78.8,67.3,29.89,SSW,211,0.0,0.0,68,0.00,,,0.00,Wunderground v.1.15,2013-10-06 16:30:00,
2013-10-06 12:40:00,79.2,66.9,29.89,SSW,212,0.0,0.0,66,0.00,,,0.00,Wunderground v.1.15,2013-10-06 16:40:00,
2013-10-06 12:45:00,79.6,67.7,29.89,SW,236,0.0,0.0,67,0.00,,,0.00,Wunderground v.1.15,2013-10-06 16:45:00,
2013-10-06 12:50:00,79.8,67.0,29.88,West,274,0.0,0.0,65,0.00,,,0.00,Wunderground v.1.15,2013-10-06 16:50:00,
2013-10-06 12:55:00,79.6,67.2,29.88,WSW,247,0.0,0.0,66,0.00,,,0.00,Wunderground v.1.15,2013-10-06 16:55:00,
2013-10-06 13:00:00,79.7,66.9,29.88,SW,217,0.0,0.0,65,0.00,,,0.00,Wunderground v.1.15,2013-10-06 17:00:00,
2013-10-06 13:10:00,79.3,67.4,29.87,WNW,288,0.0,0.0,67,0.00,,,0.00,Wunderground v.1.15,2013-10-06 17:10:00,
2013-10-06 13:15:00,79.9,66.6,29.87,West,267,0.0,0.0,64,0.00,,,0.00,Wunderground v.1.15,2013-10-06 17:15:00,
2013-10-06 13:20:00,80.1,67.3,29.87,SW,230,0.0,0.0,65,0.00,,,0.00,Wunderground v.1.15,2013-10-06 17:20:00,
2013-10-06 13:25:00,79.9,67.1,29.87,WNW,297,0.0,0.0,65,0.00,,,0.00,Wunderground v.1.15,2013-10-06 17:25:00,
2013-10-06 13:30:00,80.1,66.8,29.86,SSW,204,0.0,0.0,64,0.00,,,0.00,Wunderground v.1.15,2013-10-06 17:30:00,
2013-10-06 13:35:00,80.5,66.7,29.86,North,360,0.0,0.0,63,0.00,,,0.00,Wunderground v.1.15,2013-10-06 17:35:00,
2013-10-06 13:45:00,81.3,66.6,29.85,WNW,298,2.0,2.0,61,0.00,,,0.00,Wunderground v.1.15,2013-10-06 17:45:00,
2013-10-06 13:50:00,81.5,66.8,29.85,West,273,1.0,2.0,61,0.00,,,0.00,Wunderground v.1.15,2013-10-06 17:50:00,
2013-10-06 13:55:00,81.2,66.5,29.85,SSW,202,2.0,7.0,61,0.00,,,0.00,Wunderground v.1.15,2013-10-06 17:55:00,
2013-10-06 14:01:00,80.0,66.3,29.84,SSW,202,3.0,3.0,63,0.00,,,0.00,Wunderground v.1.15,2013-10-06 18:01:00,
2013-10-06 14:10:00,79.3,67.0,29.84,SSW,205,1.0,1.0,66,0.00,,,0.00,Wunderground v.1.15,2013-10-06 18:10:00,
2013-10-06 14:20:00,79.0,66.2,29.84,South,184,0.0,0.0,65,0.00,,,0.00,Wunderground v.1.15,2013-10-06 18:20:00,
2013-10-06 14:25:00,79.3,67.0,29.84,SW,233,1.0,2.0,66,0.00,,,0.00,Wunderground v.1.15,2013-10-06 18:25:00,
2013-10-06 14:30:00,79.8,67.0,29.84,SW,230,1.0,1.0,65,0.00,,,0.00,Wunderground v.1.15,2013-10-06 18:30:00,
2013-10-06 14:35:00,80.3,67.0,29.84,SSW,197,1.0,5.0,64,0.00,,,0.00,Wunderground v.1.15,2013-10-06 18:35:00,
2013-10-06 14:40:00,80.1,66.4,29.84,SSW,212,3.0,3.0,63,0.00,,,0.00,Wunderground v.1.15,2013-10-06 18:40:00,
2013-10-06 14:50:00,80.1,65.9,29.83,WSW,251,4.0,4.0,62,0.00,,,0.00,Wunderground v.1.15,2013-10-06 18:50:00,
2013-10-06 14:55:00,80.2,66.9,29.83,NW,315,2.0,4.0,64,0.00,,,0.00,Wunderground v.1.15,2013-10-06 18:55:00,
2013-10-06 15:01:00,80.4,65.7,29.83,SSW,207,2.0,9.0,61,0.00,,,0.00,Wunderground v.1.15,2013-10-06 19:01:00,
2013-10-06 15:10:00,80.1,65.9,29.83,WNW,284,2.0,2.0,62,0.00,,,0.00,Wunderground v.1.15,2013-10-06 19:10:00,
2013-10-06 15:15:00,79.8,65.2,29.83,WSW,252,1.0,2.0,61,0.00,,,0.00,Wunderground v.1.15,2013-10-06 19:15:00,
2013-10-06 15:20:00,79.6,65.4,29.83,WNW,298,1.0,1.0,62,0.00,,,0.00,Wunderground v.1.15,2013-10-06 19:20:00,
2013-10-06 15:25:00,80.1,65.9,29.82,SW,217,0.0,1.0,62,0.00,,,0.00,Wunderground v.1.15,2013-10-06 19:25:00,
2013-10-06 15:30:00,81.3,66.1,29.82,SSW,212,0.0,6.0,60,0.00,,,0.00,Wunderground v.1.15,2013-10-06 19:30:00,
2013-10-06 15:35:00,81.4,65.7,29.82,SW,219,2.0,6.0,59,0.00,,,0.00,Wunderground v.1.15,2013-10-06 19:35:00,
2013-10-06 15:40:00,81.7,65.0,29.82,WNW,292,3.0,3.0,57,0.00,,,0.00,Wunderground v.1.15,2013-10-06 19:40:00,
2013-10-06 15:50:00,82.1,65.9,29.82,SW,227,2.0,3.0,58,0.00,,,0.00,Wunderground v.1.15,2013-10-06 19:50:00,
2013-10-06 15:55:00,81.2,65.5,29.82,SW,225,2.0,3.0,59,0.00,,,0.00,Wunderground v.1.15,2013-10-06 19:55:00,
2013-10-06 16:01:00,81.0,66.3,29.82,SW,227,1.0,1.0,61,0.00,,,0.00,Wunderground v.1.15,2013-10-06 20:01:00,
2013-10-06 16:10:00,80.9,65.7,29.81,SW,216,3.0,3.0,60,0.00,,,0.00,Wunderground v.1.15,2013-10-06 20:10:00,
2013-10-06 16:15:00,80.7,66.0,29.81,SW,219,2.0,3.0,61,0.00,,,0.00,Wunderground v.1.15,2013-10-06 20:15:00,
2013-10-06 16:25:00,80.8,65.6,29.81,SW,232,2.0,2.0,60,0.00,,,0.00,Wunderground v.1.15,2013-10-06 20:25:00,
2013-10-06 16:30:00,80.5,65.8,29.81,SSW,205,1.0,5.0,61,0.00,,,0.00,Wunderground v.1.15,2013-10-06 20:30:00,
2013-10-06 16:35:00,80.3,66.1,29.80,West,265,2.0,5.0,62,0.00,,,0.00,Wunderground v.1.15,2013-10-06 20:35:00,
2013-10-06 16:40:00,80.3,65.6,29.80,SSW,213,4.0,7.0,61,0.00,,,0.00,Wunderground v.1.15,2013-10-06 20:40:00,
2013-10-06 16:45:00,80.0,65.8,29.80,SSW,205,5.0,7.0,62,0.00,,,0.00,Wunderground v.1.15,2013-10-06 20:45:00,
2013-10-06 16:50:00,79.7,65.5,29.80,WSW,240,4.0,4.0,62,0.00,,,0.00,Wunderground v.1.15,2013-10-06 20:50:00,
2013-10-06 17:01:00,79.0,65.3,29.80,SSW,209,4.0,7.0,63,0.00,,,0.00,Wunderground v.1.15,2013-10-06 21:01:00,
2013-10-06 17:10:00,79.5,65.3,29.80,SSW,213,3.0,3.0,62,0.00,,,0.00,Wunderground v.1.15,2013-10-06 21:10:00,
2013-10-06 17:15:00,79.6,65.0,29.80,SSW,212,4.0,4.0,61,0.00,,,0.00,Wunderground v.1.15,2013-10-06 21:15:00,
2013-10-06 17:20:00,79.6,64.5,29.80,WNW,296,5.0,5.0,60,0.00,,,0.00,Wunderground v.1.15,2013-10-06 21:20:00,
2013-10-06 17:30:00,79.2,64.6,29.80,SSW,211,3.0,6.0,61,0.00,,,0.00,Wunderground v.1.15,2013-10-06 21:30:00,
2013-10-06 17:40:00,78.0,64.4,29.80,SSW,202,2.0,8.0,63,0.00,,,0.00,Wunderground v.1.15,2013-10-06 21:40:00,
2013-10-06 17:45:00,77.6,64.5,29.80,SW,225,3.0,8.0,64,0.00,,,0.00,Wunderground v.1.15,2013-10-06 21:45:00,
2013-10-06 17:50:00,77.4,64.3,29.80,SW,234,2.0,2.0,64,0.00,,,0.00,Wunderground v.1.15,2013-10-06 21:50:00,
2013-10-06 17:55:00,77.6,64.9,29.80,SW,216,2.0,2.0,65,0.00,,,0.00,Wunderground v.1.15,2013-10-06 21:55:00,
2013-10-06 18:05:00,77.7,65.0,29.80,SW,222,0.0,15.0,65,0.00,,,0.00,Wunderground v.1.15,2013-10-06 22:05:00,
2013-10-06 18:10:00,77.8,64.6,29.80,West,281,0.0,15.0,64,0.00,,,0.00,Wunderground v.1.15,2013-10-06 22:10:00,
2013-10-06 18:15:00,77.6,64.9,29.80,SW,223,1.0,15.0,65,0.00,,,0.00,Wunderground v.1.15,2013-10-06 22:15:00,
2013-10-06 18:20:00,77.3,64.6,29.80,SW,221,1.0,1.0,65,0.00,,,0.00,Wunderground v.1.15,2013-10-06 22:20:00,
2013-10-06 18:25:00,76.9,64.7,29.80,SW,221,0.0,15.0,66,0.00,,,0.00,Wunderground v.1.15,2013-10-06 22:25:00,
2013-10-06 18:30:00,76.6,64.8,29.80,SW,230,0.0,15.0,67,0.00,,,0.00,Wunderground v.1.15,2013-10-06 22:30:00,
2013-10-06 18:35:00,76.1,64.8,29.80,SW,230,0.0,15.0,68,0.00,,,0.00,Wunderground v.1.15,2013-10-06 22:35:00,
2013-10-06 18:40:00,75.7,64.4,29.81,SW,230,0.0,15.0,68,0.00,,,0.00,Wunderground v.1.15,2013-10-06 22:40:00,
2013-10-06 18:45:00,75.3,64.4,29.81,SW,230,0.0,15.0,69,0.00,,,0.00,Wunderground v.1.15,2013-10-06 22:45:00,
2013-10-06 18:50:00,74.9,64.5,29.81,SW,230,0.0,15.0,70,0.00,,,0.00,Wunderground v.1.15,2013-10-06 22:50:00,
2013-10-06 18:55:00,74.4,64.4,29.81,SW,230,0.0,15.0,71,0.00,,,0.00,Wunderground v.1.15,2013-10-06 22:55:00,
2013-10-06 19:05:00,73.7,64.1,29.81,SW,230,0.0,15.0,72,0.00,,,0.00,Wunderground v.1.15,2013-10-06 23:05:00,
2013-10-06 19:10:00,73.4,63.8,29.80,SW,230,0.0,15.0,72,0.00,,,0.00,Wunderground v.1.15,2013-10-06 23:10:00,
2013-10-06 19:15:00,73.0,63.8,29.81,SW,230,0.0,15.0,73,0.00,,,0.00,Wunderground v.1.15,2013-10-06 23:15:00,
2013-10-06 19:20:00,72.7,63.9,29.81,SW,230,0.0,15.0,74,0.00,,,0.00,Wunderground v.1.15,2013-10-06 23:20:00,
2013-10-06 19:25:00,72.3,63.9,29.81,SW,230,0.0,15.0,75,0.00,,,0.00,Wunderground v.1.15,2013-10-06 23:25:00,
2013-10-06 19:30:00,71.9,64.3,29.81,SW,230,0.0,15.0,77,0.00,,,0.00,Wunderground v.1.15,2013-10-06 23:30:00,
2013-10-06 19:40:00,70.7,63.5,29.80,SW,230,0.0,15.0,78,0.00,,,0.00,Wunderground v.1.15,2013-10-06 23:40:00,
2013-10-06 19:45:00,70.2,63.7,29.80,SW,230,0.0,15.0,80,0.00,,,0.00,Wunderground v.1.15,2013-10-06 23:45:00,
2013-10-06 19:50:00,69.7,63.3,29.80,SW,230,0.0,15.0,80,0.00,,,0.00,Wunderground v.1.15,2013-10-06 23:50:00,
2013-10-06 19:55:00,69.3,63.2,29.80,SW,230,0.0,15.0,81,0.00,,,0.00,Wunderground v.1.15,2013-10-06 23:55:00,
2013-10-06 20:00:00,69.0,63.3,29.80,SW,230,0.0,15.0,82,0.00,,,0.00,Wunderground v.1.15,2013-10-07 00:00:00,
2013-10-06 20:10:00,68.5,63.1,29.81,SW,229,0.0,15.0,83,0.00,,,0.00,Wunderground v.1.15,2013-10-07 00:10:00,
2013-10-06 20:15:00,68.4,63.0,29.80,SW,229,0.0,15.0,83,0.00,,,0.00,Wunderground v.1.15,2013-10-07 00:15:00,
2013-10-06 20:20:00,68.2,63.2,29.81,SW,229,0.0,15.0,84,0.00,,,0.00,Wunderground v.1.15,2013-10-07 00:20:00,
2013-10-06 20:25:00,67.9,63.2,29.81,SW,229,0.0,15.0,85,0.00,,,0.00,Wunderground v.1.15,2013-10-07 00:25:00,
2013-10-06 20:30:00,67.6,62.9,29.81,SW,229,0.0,15.0,85,0.00,,,0.00,Wunderground v.1.15,2013-10-07 00:30:00,
2013-10-06 20:40:00,67.1,62.8,29.81,SW,229,0.0,15.0,86,0.00,,,0.00,Wunderground v.1.15,2013-10-07 00:40:00,
2013-10-06 20:45:00,66.8,62.5,29.81,SW,229,0.0,15.0,86,0.00,,,0.00,Wunderground v.1.15,2013-10-07 00:45:00,
2013-10-06 20:50:00,66.6,62.6,29.81,SW,229,0.0,15.0,87,0.00,,,0.00,Wunderground v.1.15,2013-10-07 00:50:00,
2013-10-06 20:55:00,66.4,62.4,29.80,SW,229,0.0,15.0,87,0.00,,,0.00,Wunderground v.1.15,2013-10-07 00:55:00,
2013-10-06 21:00:00,66.2,62.5,29.80,SW,229,0.0,15.0,88,0.00,,,0.00,Wunderground v.1.15,2013-10-07 01:00:00,
2013-10-06 21:05:00,66.1,62.4,29.81,SW,229,0.0,15.0,88,0.00,,,0.00,Wunderground v.1.15,2013-10-07 01:05:00,
2013-10-06 21:15:00,65.9,62.6,29.80,SW,229,0.0,15.0,89,0.00,,,0.00,Wunderground v.1.15,2013-10-07 01:15:00,
2013-10-06 21:20:00,65.9,62.6,29.81,SW,229,0.0,15.0,89,0.00,,,0.00,Wunderground v.1.15,2013-10-07 01:20:00,
2013-10-06 21:25:00,65.9,62.9,29.81,SW,229,0.0,15.0,90,0.00,,,0.00,Wunderground v.1.15,2013-10-07 01:25:00,
2013-10-06 21:30:00,65.9,62.9,29.81,SW,229,0.0,15.0,90,0.00,,,0.00,Wunderground v.1.15,2013-10-07 01:30:00,
2013-10-06 21:35:00,65.9,62.9,29.81,SW,229,0.0,15.0,90,0.00,,,0.00,Wunderground v.1.15,2013-10-07 01:35:00,
2013-10-06 21:45:00,66.0,63.0,29.81,SW,229,0.0,15.0,90,0.00,,,0.00,Wunderground v.1.15,2013-10-07 01:45:00,
2013-10-06 21:50:00,66.0,63.3,29.81,SW,229,0.0,15.0,91,0.00,,,0.00,Wunderground v.1.15,2013-10-07 01:50:00,
2013-10-06 21:55:00,66.0,63.0,29.81,SW,229,0.0,15.0,90,0.00,,,0.00,Wunderground v.1.15,2013-10-07 01:55:00,
2013-10-06 22:00:00,65.9,63.2,29.81,SW,229,0.0,15.0,91,0.00,,,0.00,Wunderground v.1.15,2013-10-07 02:00:00,
2013-10-06 22:05:00,65.9,63.2,29.81,SW,229,0.0,15.0,91,0.00,,,0.00,Wunderground v.1.15,2013-10-07 02:05:00,
2013-10-06 22:15:00,66.0,63.3,29.81,SW,229,0.0,15.0,91,0.00,,,0.00,Wunderground v.1.15,2013-10-07 02:15:00,
2013-10-06 22:20:00,66.1,63.4,29.81,SW,229,0.0,15.0,91,0.00,,,0.00,Wunderground v.1.15,2013-10-07 02:20:00,
2013-10-06 22:25:00,66.1,63.4,29.81,SW,229,0.0,15.0,91,0.00,,,0.00,Wunderground v.1.15,2013-10-07 02:25:00,
2013-10-06 22:30:00,66.2,63.5,29.81,SW,229,0.0,15.0,91,0.00,,,0.00,Wunderground v.1.15,2013-10-07 02:30:00,
2013-10-06 22:35:00,66.2,63.5,29.81,SW,229,0.0,15.0,91,0.00,,,0.00,Wunderground v.1.15,2013-10-07 02:35:00,
2013-10-06 22:40:00,66.3,63.6,29.80,SW,229,0.0,15.0,91,0.00,,,0.00,Wunderground v.1.15,2013-10-07 02:40:00,
2013-10-06 22:45:00,66.3,63.6,29.80,SW,229,0.0,15.0,91,0.00,,,0.00,Wunderground v.1.15,2013-10-07 02:45:00,
2013-10-06 22:50:00,66.4,63.7,29.80,SW,229,0.0,15.0,91,0.00,,,0.00,Wunderground v.1.15,2013-10-07 02:50:00,
2013-10-06 22:55:00,66.5,63.8,29.80,SW,229,0.0,15.0,91,0.00,,,0.00,Wunderground v.1.15,2013-10-07 02:55:00,
2013-10-06 23:00:00,66.5,63.8,29.80,SW,229,0.0,15.0,91,0.00,,,0.00,Wunderground v.1.15,2013-10-07 03:00:00,
2013-10-06 23:05:00,66.6,63.9,29.80,SW,229,0.0,15.0,91,0.00,,,0.00,Wunderground v.1.15,2013-10-07 03:05:00,
2013-10-06 23:10:00,66.6,63.9,29.79,SW,229,0.0,15.0,91,0.00,,,0.00,Wunderground v.1.15,2013-10-07 03:10:00,
2013-10-06 23:20:00,66.5,63.8,29.79,SW,229,0.0,15.0,91,0.00,,,0.00,Wunderground v.1.15,2013-10-07 03:20:00,
2013-10-06 23:25:00,66.5,63.8,29.79,SW,229,0.0,15.0,91,0.00,,,0.00,Wunderground v.1.15,2013-10-07 03:25:00,
2013-10-06 23:30:00,66.5,63.8,29.79,SW,229,0.0,15.0,91,0.00,,,0.00,Wunderground v.1.15,2013-10-07 03:30:00,
2013-10-06 23:35:00,66.5,63.8,29.79,SW,229,0.0,15.0,91,0.00,,,0.00,Wunderground v.1.15,2013-10-07 03:35:00,
2013-10-06 23:40:00,66.5,63.8,29.79,SW,229,0.0,15.0,91,0.00,,,0.00,Wunderground v.1.15,2013-10-07 03:40:00,
2013-10-06 23:50:00,66.5,63.8,29.79,SW,229,0.0,15.0,91,0.00,,,0.00,Wunderground v.1.15,2013-10-07 03:50:00,
2013-10-06 23:55:00,66.5,63.8,29.79,SW,229,0.0,15.0,91,0.00,,,0.00,Wunderground v.1.15,2013-10-07 03:55:00,